Tracking 31027 objects as of 19-Jul-2025
HD Live streaming from Space Station
objects crossing your sky now

COSMOS 1818 COOLANT

Track COSMOS 1818 COOLANT now!
10-day predictions


NORAD ID: 50792
Int'l Code: 1987-011BH
Perigee: 761.6 km
Apogee: 780.2 km
Inclination: 65.0 °
Period: 100.1 minutes
Semi major axis: 7141 km
RCS: Unknown
Launch date: February 1, 1987
Source: Commonwealth of Independent States (former USSR) (CIS)
Launch site: TYURATAM MISSILE AND SPACE COMPLEX (TTMTR)

Note: This is SATELLITE DEBRIS
Your satellite tracking list
STARLINK-1243
Track 1 satellite(s)




NASA's NSSDC Master Catalog

Two Line Element Set (TLE):
1 50792U 87011BH  25196.87903843  .00000457  00000-0  18265-3 0  9996
2 50792  65.0110  52.9849 0013019 264.2636 115.0129 14.38408338 52433
Source of the keplerian elements: AFSPC